Location: Arbon
(43.0005°N, 0.7472°E)
Time: 07:04:46
(UTC+00:00)

Vanguard 1 - Pass Details

Date: 29 November 2020
Orbit: 648 x 3834 km, 34.3° (Epoch: 21 January)

Event Time Altitude Azimuth Distance (km) Brightness Sun altitude
Rises 03:58:02 0° 215° (SW) 3,160 - -33.9°
Reaches altitude 10° 04:00:32 10° 200° (SSW) 2,430 - -33.4°
Exits shadow 04:03:11 21° 171° (S) 2,009 11.7 -32.9°
Maximum altitude 04:04:59 24° 147° (SSE) 2,044 11.9 -32.6°
Drops below altitude 10° 04:11:23 10° 98° (E) 3,626 13.8 -31.4°
Sets 04:16:08 0° 87° (E) 5,194 14.9 -30.6°
